Time,TemperatureF,DewpointF,PressureIn,WindDirection,WindDirectionDegrees,WindSpeedMPH,WindSpeedGustMPH,Humidity,HourlyPrecipIn,Conditions,Clouds,dailyrainin,SoftwareType,DateUTC
2013-01-02 00:02:00,10.0,4.0,30.10,North,-999,-999.0,-999.0,76,-99.99,,,-99.99,,2013-01-02 07:02:00,
2013-01-02 00:12:00,12.0,5.0,30.10,North,-999,-999.0,-999.0,73,-99.99,,,-99.99,,2013-01-02 07:12:00,
2013-01-02 00:22:00,12.0,5.0,30.10,North,-999,-999.0,-999.0,73,-99.99,,,-99.99,,2013-01-02 07:22:00,
2013-01-02 00:32:00,12.0,5.0,30.10,North,-999,-999.0,-999.0,73,-99.99,,,-99.99,,2013-01-02 07:32:00,
2013-01-02 00:42:00,14.0,6.0,30.08,North,-999,-999.0,-999.0,69,-99.99,,,-99.99,,2013-01-02 07:42:00,
2013-01-02 00:52:00,14.0,6.0,30.08,North,-999,-999.0,-999.0,69,-99.99,,,-99.99,,2013-01-02 07:52:00,
2013-01-02 01:02:00,14.0,6.0,30.08,North,-999,-999.0,-999.0,69,-99.99,,,-99.99,,2013-01-02 08:02:00,
2013-01-02 01:12:00,14.0,6.0,30.08,North,-999,-999.0,-999.0,69,-99.99,,,-99.99,,2013-01-02 08:12:00,
2013-01-02 01:22:00,14.0,6.0,30.08,North,-999,-999.0,-999.0,70,-99.99,,,-99.99,,2013-01-02 08:22:00,
2013-01-02 01:32:00,14.0,6.0,30.08,North,-999,-999.0,-999.0,70,-99.99,,,-99.99,,2013-01-02 08:32:00,
2013-01-02 01:42:00,13.0,5.0,30.09,North,-999,-999.0,-999.0,72,-99.99,,,-99.99,,2013-01-02 08:42:00,
2013-01-02 01:53:00,13.0,5.0,30.09,North,-999,-999.0,-999.0,72,-99.99,,,-99.99,,2013-01-02 08:53:00,
2013-01-02 02:02:00,13.0,5.0,30.09,North,-999,-999.0,-999.0,72,-99.99,,,-99.99,,2013-01-02 09:02:00,
2013-01-02 02:12:00,14.0,4.0,30.09,North,-999,-999.0,-999.0,65,-99.99,,,-99.99,,2013-01-02 09:12:00,
2013-01-02 02:22:00,14.0,4.0,30.09,North,-999,-999.0,-999.0,65,-99.99,,,-99.99,,2013-01-02 09:22:00,
2013-01-02 02:32:00,14.0,4.0,30.09,North,-999,-999.0,-999.0,65,-99.99,,,-99.99,,2013-01-02 09:32:00,
2013-01-02 02:43:00,13.0,4.0,30.09,North,-999,-999.0,-999.0,67,-99.99,,,-99.99,,2013-01-02 09:43:00,
2013-01-02 02:52:00,13.0,4.0,30.09,North,-999,-999.0,-999.0,67,-99.99,,,-99.99,,2013-01-02 09:52:00,
2013-01-02 03:02:00,13.0,4.0,30.09,North,-999,-999.0,-999.0,67,-99.99,,,-99.99,,2013-01-02 10:02:00,
2013-01-02 03:12:00,11.0,4.0,30.08,North,-999,-999.0,-999.0,70,-99.99,,,-99.99,,2013-01-02 10:12:00,
2013-01-02 03:22:00,11.0,4.0,30.08,North,-999,-999.0,-999.0,70,-99.99,,,-99.99,,2013-01-02 10:22:00,
2013-01-02 03:32:00,11.0,4.0,30.08,North,-999,-999.0,-999.0,70,-99.99,,,-99.99,,2013-01-02 10:32:00,
2013-01-02 03:42:00,11.0,4.0,30.08,North,-999,-999.0,-999.0,70,-99.99,,,-99.99,,2013-01-02 10:42:00,
2013-01-02 03:52:00,12.0,5.0,30.09,North,-999,-999.0,-999.0,71,-99.99,,,-99.99,,2013-01-02 10:52:00,
2013-01-02 04:02:00,12.0,5.0,30.09,North,-999,-999.0,-999.0,71,-99.99,,,-99.99,,2013-01-02 11:02:00,
2013-01-02 04:12:00,11.0,3.0,30.09,North,-999,-999.0,-999.0,71,-99.99,,,-99.99,,2013-01-02 11:12:00,
2013-01-02 04:22:00,11.0,3.0,30.09,North,-999,-999.0,-999.0,71,-99.99,,,-99.99,,2013-01-02 11:22:00,
2013-01-02 04:32:00,11.0,3.0,30.09,North,-999,-999.0,-999.0,71,-99.99,,,-99.99,,2013-01-02 11:32:00,
2013-01-02 04:43:00,11.0,3.0,30.09,North,-999,-999.0,-999.0,71,-99.99,,,-99.99,,2013-01-02 11:43:00,
2013-01-02 04:53:00,11.0,3.0,30.09,North,-999,-999.0,-999.0,71,-99.99,,,-99.99,,2013-01-02 11:53:00,
2013-01-02 05:02:00,11.0,3.0,30.09,North,-999,-999.0,-999.0,71,-99.99,,,-99.99,,2013-01-02 12:02:00,
2013-01-02 05:12:00,11.0,3.0,30.09,North,-999,-999.0,-999.0,71,-99.99,,,-99.99,,2013-01-02 12:12:00,
2013-01-02 05:22:00,10.0,1.0,30.09,North,-999,-999.0,-999.0,66,-99.99,,,-99.99,,2013-01-02 12:22:00,
2013-01-02 05:32:00,10.0,1.0,30.09,North,-999,-999.0,-999.0,66,-99.99,,,-99.99,,2013-01-02 12:32:00,
2013-01-02 05:43:00,10.0,1.0,30.09,North,-999,-999.0,-999.0,66,-99.99,,,-99.99,,2013-01-02 12:43:00,
2013-01-02 05:53:00,9.0,1.0,30.10,North,-999,-999.0,-999.0,67,-99.99,,,-99.99,,2013-01-02 12:53:00,
2013-01-02 06:02:00,9.0,1.0,30.10,North,-999,-999.0,-999.0,67,-99.99,,,-99.99,,2013-01-02 13:02:00,
2013-01-02 06:12:00,10.0,2.0,30.11,North,-999,-999.0,-999.0,69,-99.99,,,-99.99,,2013-01-02 13:12:00,
2013-01-02 06:22:00,10.0,2.0,30.11,North,-999,-999.0,-999.0,69,-99.99,,,-99.99,,2013-01-02 13:22:00,
2013-01-02 06:32:00,10.0,2.0,30.11,North,-999,-999.0,-999.0,69,-99.99,,,-99.99,,2013-01-02 13:32:00,
2013-01-02 06:43:00,12.0,2.0,30.11,North,-999,-999.0,-999.0,64,-99.99,,,-99.99,,2013-01-02 13:43:00,
2013-01-02 06:52:00,12.0,2.0,30.11,North,-999,-999.0,-999.0,64,-99.99,,,-99.99,,2013-01-02 13:52:00,
2013-01-02 07:02:00,12.0,2.0,30.11,North,-999,-999.0,-999.0,64,-99.99,,,-99.99,,2013-01-02 14:02:00,
2013-01-02 07:12:00,10.0,1.0,30.12,North,-999,-999.0,-999.0,67,-99.99,,,-99.99,,2013-01-02 14:12:00,
2013-01-02 07:22:00,10.0,1.0,30.12,North,-999,-999.0,-999.0,67,-99.99,,,-99.99,,2013-01-02 14:22:00,
2013-01-02 07:30:00,9.0,1.0,30.11,North,-999,-999.0,-999.0,69,-99.99,,,-99.99,,2013-01-02 14:30:00,
2013-01-02 07:33:00,10.0,1.0,30.12,North,-999,-999.0,-999.0,67,-99.99,,,-99.99,,2013-01-02 14:33:00,
2013-01-02 07:43:00,10.0,1.0,30.12,North,-999,-999.0,-999.0,67,-99.99,,,-99.99,,2013-01-02 14:43:00,
2013-01-02 07:53:00,9.0,1.0,30.11,North,-999,-999.0,-999.0,69,-99.99,,,-99.99,,2013-01-02 14:53:00,
2013-01-02 08:02:00,9.0,1.0,30.11,North,-999,-999.0,-999.0,69,-99.99,,,-99.99,,2013-01-02 15:02:00,
2013-01-02 08:12:00,9.0,1.0,30.11,North,-999,-999.0,-999.0,69,-99.99,,,-99.99,,2013-01-02 15:12:00,
2013-01-02 08:22:00,9.0,1.0,30.11,North,-999,-999.0,-999.0,69,-99.99,,,-99.99,,2013-01-02 15:22:00,
2013-01-02 09:22:00,11.0,3.0,30.13,North,-999,-999.0,-999.0,68,-99.99,,,-99.99,,2013-01-02 16:22:00,
2013-01-02 09:33:00,11.0,3.0,30.13,North,-999,-999.0,-999.0,68,-99.99,,,-99.99,,2013-01-02 16:33:00,
2013-01-02 09:43:00,12.0,3.0,30.14,North,-999,-999.0,-999.0,68,-99.99,,,-99.99,,2013-01-02 16:43:00,
2013-01-02 09:53:00,12.0,3.0,30.14,North,-999,-999.0,-999.0,68,-99.99,,,-99.99,,2013-01-02 16:53:00,
2013-01-02 10:03:00,12.0,3.0,30.14,North,-999,-999.0,-999.0,68,-99.99,,,-99.99,,2013-01-02 17:03:00,
2013-01-02 10:13:00,13.0,4.0,30.14,North,-999,-999.0,-999.0,65,-99.99,,,-99.99,,2013-01-02 17:13:00,
2013-01-02 10:23:00,13.0,4.0,30.14,North,-999,-999.0,-999.0,65,-99.99,,,-99.99,,2013-01-02 17:23:00,
2013-01-02 10:33:00,13.0,4.0,30.14,North,-999,-999.0,-999.0,65,-99.99,,,-99.99,,2013-01-02 17:33:00,
2013-01-02 10:43:00,13.0,4.0,30.14,North,-999,-999.0,-999.0,65,-99.99,,,-99.99,,2013-01-02 17:43:00,
2013-01-02 10:53:00,14.0,5.0,30.15,North,-999,-999.0,-999.0,64,-99.99,,,-99.99,,2013-01-02 17:53:00,
2013-01-02 11:02:00,14.0,5.0,30.15,North,-999,-999.0,-999.0,64,-99.99,,,-99.99,,2013-01-02 18:02:00,
2013-01-02 11:12:00,16.0,7.0,30.14,North,-999,-999.0,-999.0,65,-99.99,,,-99.99,,2013-01-02 18:12:00,
2013-01-02 11:22:00,16.0,7.0,30.14,North,-999,-999.0,-999.0,65,-99.99,,,-99.99,,2013-01-02 18:22:00,
2013-01-02 11:33:00,16.0,7.0,30.14,North,-999,-999.0,-999.0,65,-99.99,,,-99.99,,2013-01-02 18:33:00,
2013-01-02 11:43:00,16.0,7.0,30.14,North,-999,-999.0,-999.0,65,-99.99,,,-99.99,,2013-01-02 18:43:00,
2013-01-02 11:53:00,16.0,6.0,30.14,North,-999,-999.0,-999.0,64,-99.99,,,-99.99,,2013-01-02 18:53:00,
2013-01-02 12:03:00,16.0,6.0,30.14,North,-999,-999.0,-999.0,64,-99.99,,,-99.99,,2013-01-02 19:03:00,
2013-01-02 12:12:00,17.0,6.0,30.12,North,-999,-999.0,-999.0,61,-99.99,,,-99.99,,2013-01-02 19:12:00,
2013-01-02 12:22:00,17.0,6.0,30.12,North,-999,-999.0,-999.0,61,-99.99,,,-99.99,,2013-01-02 19:22:00,
2013-01-02 12:32:00,17.0,6.0,30.12,North,-999,-999.0,-999.0,61,-99.99,,,-99.99,,2013-01-02 19:32:00,
2013-01-02 12:43:00,16.0,5.0,30.11,North,-999,-999.0,-999.0,61,-99.99,,,-99.99,,2013-01-02 19:43:00,
2013-01-02 12:52:00,16.0,5.0,30.11,North,-999,-999.0,-999.0,61,-99.99,,,-99.99,,2013-01-02 19:52:00,
2013-01-02 13:02:00,16.0,5.0,30.11,North,-999,-999.0,-999.0,61,-99.99,,,-99.99,,2013-01-02 20:02:00,
2013-01-02 13:12:00,17.0,6.0,30.10,North,-999,-999.0,-999.0,61,-99.99,,,-99.99,,2013-01-02 20:12:00,
2013-01-02 13:22:00,17.0,6.0,30.10,North,-999,-999.0,-999.0,61,-99.99,,,-99.99,,2013-01-02 20:22:00,
2013-01-02 13:33:00,17.0,6.0,30.10,North,-999,-999.0,-999.0,61,-99.99,,,-99.99,,2013-01-02 20:33:00,
2013-01-02 13:42:00,17.0,6.0,30.10,North,-999,-999.0,-999.0,60,-99.99,,,-99.99,,2013-01-02 20:42:00,
2013-01-02 13:53:00,17.0,6.0,30.10,North,-999,-999.0,-999.0,60,-99.99,,,-99.99,,2013-01-02 20:53:00,
2013-01-02 14:03:00,17.0,6.0,30.10,North,-999,-999.0,-999.0,60,-99.99,,,-99.99,,2013-01-02 21:03:00,
2013-01-02 14:13:00,17.0,5.0,30.10,North,-999,-999.0,-999.0,59,-99.99,,,-99.99,,2013-01-02 21:13:00,
2013-01-02 14:22:00,17.0,5.0,30.10,North,-999,-999.0,-999.0,59,-99.99,,,-99.99,,2013-01-02 21:22:00,
2013-01-02 14:32:00,17.0,5.0,30.10,North,-999,-999.0,-999.0,59,-99.99,,,-99.99,,2013-01-02 21:32:00,
2013-01-02 14:43:00,17.0,2.0,30.11,North,-999,-999.0,-999.0,52,-99.99,,,-99.99,,2013-01-02 21:43:00,
2013-01-02 14:53:00,17.0,2.0,30.11,North,-999,-999.0,-999.0,52,-99.99,,,-99.99,,2013-01-02 21:53:00,
2013-01-02 15:02:00,17.0,2.0,30.11,North,-999,-999.0,-999.0,52,-99.99,,,-99.99,,2013-01-02 22:02:00,
2013-01-02 15:12:00,17.0,2.0,30.11,North,-999,-999.0,-999.0,52,-99.99,,,-99.99,,2013-01-02 22:12:00,
2013-01-02 15:22:00,16.0,1.0,30.11,North,-999,-999.0,-999.0,51,-99.99,,,-99.99,,2013-01-02 22:22:00,
2013-01-02 15:32:00,16.0,1.0,30.11,North,-999,-999.0,-999.0,51,-99.99,,,-99.99,,2013-01-02 22:32:00,
2013-01-02 15:43:00,16.0,1.0,30.11,North,-999,-999.0,-999.0,51,-99.99,,,-99.99,,2013-01-02 22:43:00,
2013-01-02 15:53:00,15.0,1.0,30.12,North,-999,-999.0,-999.0,54,-99.99,,,-99.99,,2013-01-02 22:53:00,
2013-01-02 16:02:00,15.0,1.0,30.12,North,-999,-999.0,-999.0,54,-99.99,,,-99.99,,2013-01-02 23:02:00,
2013-01-02 16:12:00,13.0,0.0,30.13,North,-999,-999.0,-999.0,56,-99.99,,,-99.99,,2013-01-02 23:12:00,
2013-01-02 16:22:00,13.0,0.0,30.13,North,-999,-999.0,-999.0,56,-99.99,,,-99.99,,2013-01-02 23:22:00,
2013-01-02 16:30:00,11.0,-1.0,30.13,North,-999,-999.0,-999.0,57,-99.99,,,-99.99,,2013-01-02 23:30:00,
2013-01-02 16:33:00,13.0,0.0,30.13,North,-999,-999.0,-999.0,56,-99.99,,,-99.99,,2013-01-02 23:33:00,
2013-01-02 16:43:00,11.0,-1.0,30.13,North,-999,-999.0,-999.0,57,-99.99,,,-99.99,,2013-01-02 23:43:00,
2013-01-02 16:53:00,11.0,-1.0,30.13,North,-999,-999.0,-999.0,57,-99.99,,,-99.99,,2013-01-02 23:53:00,
2013-01-02 17:02:00,11.0,-1.0,30.13,North,-999,-999.0,-999.0,57,-99.99,,,-99.99,,2013-01-03 00:02:00,
2013-01-02 17:12:00,11.0,-1.0,30.13,North,-999,-999.0,-999.0,57,-99.99,,,-99.99,,2013-01-03 00:12:00,
2013-01-02 17:22:00,11.0,-1.0,30.13,North,-999,-999.0,-999.0,57,-99.99,,,-99.99,,2013-01-03 00:22:00,
2013-01-02 17:53:00,12.0,0.0,30.15,North,-999,-999.0,-999.0,56,-99.99,,,-99.99,,2013-01-03 00:53:00,
2013-01-02 18:02:00,12.0,0.0,30.15,North,-999,-999.0,-999.0,56,-99.99,,,-99.99,,2013-01-03 01:02:00,
2013-01-02 18:12:00,11.0,-1.0,30.15,North,-999,-999.0,-999.0,57,-99.99,,,-99.99,,2013-01-03 01:12:00,
2013-01-02 18:22:00,11.0,-1.0,30.15,North,-999,-999.0,-999.0,57,-99.99,,,-99.99,,2013-01-03 01:22:00,
2013-01-02 18:32:00,11.0,-1.0,30.15,North,-999,-999.0,-999.0,57,-99.99,,,-99.99,,2013-01-03 01:32:00,
2013-01-02 18:43:00,9.0,-3.0,30.16,North,-999,-999.0,-999.0,57,-99.99,,,-99.99,,2013-01-03 01:43:00,
2013-01-02 18:52:00,9.0,-3.0,30.16,North,-999,-999.0,-999.0,57,-99.99,,,-99.99,,2013-01-03 01:52:00,
2013-01-02 19:02:00,9.0,-3.0,30.16,North,-999,-999.0,-999.0,57,-99.99,,,-99.99,,2013-01-03 02:02:00,
2013-01-02 19:12:00,7.0,-4.0,30.17,North,-999,-999.0,-999.0,59,-99.99,,,-99.99,,2013-01-03 02:12:00,
2013-01-02 19:22:00,7.0,-4.0,30.17,North,-999,-999.0,-999.0,59,-99.99,,,-99.99,,2013-01-03 02:22:00,
2013-01-02 19:33:00,7.0,-4.0,30.17,North,-999,-999.0,-999.0,59,-99.99,,,-99.99,,2013-01-03 02:33:00,
2013-01-02 19:43:00,7.0,-4.0,30.17,North,-999,-999.0,-999.0,59,-99.99,,,-99.99,,2013-01-03 02:43:00,
2013-01-02 19:52:00,7.0,-4.0,30.17,North,-999,-999.0,-999.0,59,-99.99,,,-99.99,,2013-01-03 02:52:00,
2013-01-02 20:02:00,6.0,-4.0,30.17,North,-999,-999.0,-999.0,63,-99.99,,,-99.99,,2013-01-03 03:02:00,
2013-01-02 20:12:00,8.0,-3.0,30.18,North,-999,-999.0,-999.0,60,-99.99,,,-99.99,,2013-01-03 03:12:00,
2013-01-02 20:22:00,8.0,-3.0,30.18,North,-999,-999.0,-999.0,60,-99.99,,,-99.99,,2013-01-03 03:22:00,
2013-01-02 20:47:00,8.0,-3.0,30.18,North,-999,-999.0,-999.0,60,-99.99,,,-99.99,,2013-01-03 03:47:00,
2013-01-02 20:53:00,8.0,-3.0,30.18,North,-999,-999.0,-999.0,61,-99.99,,,-99.99,,2013-01-03 03:53:00,
2013-01-02 21:02:00,8.0,-3.0,30.18,North,-999,-999.0,-999.0,61,-99.99,,,-99.99,,2013-01-03 04:02:00,
2013-01-02 21:12:00,6.0,-4.0,30.18,North,-999,-999.0,-999.0,64,-99.99,,,-99.99,,2013-01-03 04:12:00,
2013-01-02 21:22:00,6.0,-4.0,30.18,North,-999,-999.0,-999.0,64,-99.99,,,-99.99,,2013-01-03 04:22:00,
2013-01-02 21:32:00,6.0,-4.0,30.18,North,-999,-999.0,-999.0,64,-99.99,,,-99.99,,2013-01-03 04:32:00,
2013-01-02 21:43:00,6.0,-5.0,30.19,North,-999,-999.0,-999.0,59,-99.99,,,-99.99,,2013-01-03 04:43:00,
2013-01-02 21:52:00,6.0,-5.0,30.19,North,-999,-999.0,-999.0,59,-99.99,,,-99.99,,2013-01-03 04:52:00,
2013-01-02 22:03:00,6.0,-5.0,30.19,North,-999,-999.0,-999.0,59,-99.99,,,-99.99,,2013-01-03 05:03:00,
2013-01-02 22:12:00,6.0,-5.0,30.21,North,-999,-999.0,-999.0,59,-99.99,,,-99.99,,2013-01-03 05:12:00,
2013-01-02 22:22:00,6.0,-5.0,30.21,North,-999,-999.0,-999.0,59,-99.99,,,-99.99,,2013-01-03 05:22:00,
2013-01-02 22:33:00,6.0,-5.0,30.21,North,-999,-999.0,-999.0,59,-99.99,,,-99.99,,2013-01-03 05:33:00,
2013-01-02 22:42:00,6.0,-5.0,30.21,North,-999,-999.0,-999.0,59,-99.99,,,-99.99,,2013-01-03 05:42:00,
2013-01-02 22:53:00,3.0,-6.0,30.21,North,-999,-999.0,-999.0,64,-99.99,,,-99.99,,2013-01-03 05:53:00,
2013-01-02 23:02:00,3.0,-6.0,30.21,North,-999,-999.0,-999.0,64,-99.99,,,-99.99,,2013-01-03 06:02:00,
2013-01-02 23:12:00,4.0,-7.0,30.22,North,-999,-999.0,-999.0,58,-99.99,,,-99.99,,2013-01-03 06:12:00,
2013-01-02 23:22:00,4.0,-7.0,30.22,North,-999,-999.0,-999.0,58,-99.99,,,-99.99,,2013-01-03 06:22:00,
2013-01-02 23:32:00,4.0,-7.0,30.22,North,-999,-999.0,-999.0,58,-99.99,,,-99.99,,2013-01-03 06:32:00,
2013-01-02 23:42:00,3.0,-8.0,30.22,North,-999,-999.0,-999.0,59,-99.99,,,-99.99,,2013-01-03 06:42:00,
2013-01-02 23:52:00,3.0,-8.0,30.22,North,-999,-999.0,-999.0,59,-99.99,,,-99.99,,2013-01-03 06:52:00,